Temp
-19 -19 -19 -19 -18 -18 -18 -18 -18 -18 -18 -18 -18 -17 -17 -17 -16 -16 -16 -16 -15 -15 -15 -15 -15 -15 -15 -15 -15 -15 -15 -15 -15 -15 -15 -15 -15 -16 -16 -16 -16 -17 -17 -17 -17 -17 -17 -17 -17 -17 -18 -18 -18 -18
-19 -19 -19 -19 -19 -19 -18 -19 -18 -18 -18 -18 -18 -18 -17 -17 -17 -16 -16 -16 -16 -15 -15 -15 -15 -15 -15 -15 -15 -15 -15 -15 -15 -15 -15 -15 -16 -16 -16 -16 -17 -17 -17 -17 -17 -17 -18 -18 -18 -18 -18 -18 -18 -18
-19 -19 -19 -19 -19 -19 -19 -19 -18 -18 -18 -18 -18 -18 -18 -17 -17 -17 -16 -16 -16 -15 -15 -15 -15 -15 -15 -15 -15 -15 -15 -15 -15 -15 -16 -16 -16 -16 -16 -16 -17 -18 -18 -17 -17 -18 -18 -18 -18 -18 -18 -18 -18 -18
-19 -19 -19 -19 -19 -19 -18 -18 -19 -18 -18 -18 -18 -18 -18 -18 -17 -17 -17 -16 -16 -16 -15 -15 -15 -15 -15 -15 -15 -15 -16 -16 -16 -16 -16 -16 -16 -16 -16 -17 -17 -18 -18 -18 -17 -18 -18 -19 -18 -19 -18 -18 -18 -19
-19 -19 -18 -19 -19 -19 -19 -19 -19 -19 -18 -18 -18 -18 -18 -18 -18 -17 -17 -17 -17 -16 -16 -16 -16 -16 -16 -16 -16 -16 -16 -16 -16 -16 -16 -17 -16 -17 -16 -17 -17 -18 -18 -18 -18 -18 -18 -19 -19 -19 -19 -19 -19 -19
-19 -19 -19 -18 -19 -19 -19 -19 -19 -19 -19 -18 -18 -18 -18 -18 -18 -18 -17 -17 -17 -17 -16 -16 -16 -16 -16 -16 -16 -16 -17 -17 -17 -17 -17 -17 -17 -18 -17 -17 -18 -18 -19 -19 -19 -19 -19 -19 -19 -19 -19 -19 -20 -20
-20 -20 -19 -19 -19 -19 -19 -19 -19 -19 -19 -19 -19 -19 -18 -18 -18 -18 -18 -18 -18 -18 -17 -17 -16 -16 -17 -17 -17 -17 -17 -17 -17 -17 -17 -17 -18 -18 -17 -18 -19 -19 -19 -19 -19 -19 -19 -19 -19 -19 -20 -20 -20 -21
-21 -20 -20 -20 -19 -19 -18 -19 -19 -19 -19 -19 -19 -19 -19 -19 -18 -18 -18 -18 -18 -18 -18 -17 -16 -17 -17 -17 -17 -18 -18 -18 -18 -18 -18 -18 -18 -18 -18 -18 -19 -19 -19 -19 -19 -19 -20 -20 -20 -20 -20 -20 -21 -21
-21 -21 -20 -20 -19 -19 -19 -18 -18 -19 -19 -19 -19 -19 -19 -19 -19 -19 -19 -19 -19 -19 -18 -17 -17 -17 -17 -18 -18 -18 -18 -18 -18 -18 -18 -18 -18 -18 -19 -19 -19 -19 -19 -19 -19 -19 -20 -20 -20 -20 -21 -21 -22 -22
-21 -21 -21 -20 -20 -19 -19 -19 -19 -19 -19 -19 -19 -19 -19 -18 -19 -20 -19 -19 -19 -19 -18 -18 -18 -18 -18 -18 -18 -19 -19 -19 -18 -18 -19 -18 -18 -19 -20 -19 -20 -20 -20 -20 -20 -20 -20 -21 -21 -22 -22 -23 -23 -23
-23 -22 -21 -21 -21 -20 -20 -19 -19 -19 -19 -19 -19 -19 -18 -19 -20 -20 -20 -20 -19 -19 -18 -18 -18 -18 -19 -19 -19 -19 -19 -19 -19 -18 -19 -18 -18 -20 -20 -20 -20 -20 -20 -20 -21 -21 -21 -21 -22 -22 -23 -23 -24 -24
-23 -23 -23 -22 -22 -21 -21 -20 -20 -19 -19 -19 -19 -19 -20 -20 -20 -20 -20 -19 -19 -18 -18 -17 -18 -19 -19 -19 -19 -19 -19 -19 -19 -19 -19 -19 -19 -20 -20 -20 -20 -20 -21 -21 -21 -22 -22 -23 -23 -23 -24 -24 -24 -25
-24 -23 -22 -23 -23 -22 -22 -22 -20 -20 -20 -20 -20 -20 -19 -19 -20 -19 -19 -18 -18 -18 -18 -18 -19 -20 -20 -20 -20 -20 -20 -20 -19 -19 -19 -20 -20 -20 -20 -21 -21 -21 -21 -21 -22 -22 -23 -23 -24 -24 -24 -25 -25 -26
-25 -25 -24 -23 -23 -23 -22 -22 -22 -21 -21 -20 -20 -20 -20 -20 -20 -20 -19 -19 -19 -19 -19 -19 -19 -19 -20 -20 -20 -20 -20 -20 -20 -20 -20 -21 -21 -21 -21 -21 -22 -22 -22 -22 -23 -23 -24 -24 -24 -25 -25 -26 -26 -28
-26 -25 -25 -25 -24 -23 -23 -22 -22 -22 -21 -21 -21 -20 -20 -20 -20 -20 -20 -20 -20 -19 -19 -20 -20 -20 -20 -20 -20 -20 -20 -20 -20 -21 -21 -21 -21 -21 -22 -22 -22 -23 -23 -23 -23 -24 -24 -25 -25 -26 -27 -27 -28 -29
-26 -26 -25 -25 -25 -25 -24 -24 -23 -22 -22 -22 -21 -21 -21 -20 -20 -21 -20 -20 -20 -20 -20 -21 -21 -21 -21 -21 -21 -21 -21 -21 -21 -22 -22 -22 -22 -23 -23 -23 -23 -23 -24 -24 -25 -25 -25 -26 -26 -27 -28 -29 -29 -30
-26 -26 -26 -26 -25 -25 -25 -25 -25 -24 -23 -22 -23 -22 -22 -21 -21 -22 -21 -21 -21 -21 -21 -21 -21 -21 -21 -22 -22 -22 -22 -22 -22 -22 -23 -23 -24 -24 -24 -24 -24 -25 -25 -25 -26 -26 -27 -27 -28 -29 -29 -30 -30 -30
-27 -27 -26 -26 -26 -26 -26 -26 -26 -26 -25 -24 -24 -23 -23 -23 -23 -23 -23 -23 -23 -22 -22 -23 -23 -23 -22 -23 -23 -23 -23 -23 -24 -24 -24 -24 -24 -25 -25 -26 -26 -26 -26 -27 -27 -28 -29 -29 -30 -30 -30 -30 -31 -31
-27 -27 -27 -27 -27 -27 -26 -26 -27 -26 -26 -26 -26 -25 -24 -24 -24 -24 -24 -24 -24 -24 -23 -23 -23 -24 -24 -24 -24 -24 -24 -25 -25 -25 -25 -25 -26 -26 -26 -27 -27 -27 -28 -28 -29 -30 -30 -30 -30 -31 -31 -31 -32 -32
-28 -28 -28 -28 -28 -28 -28 -28 -28 -28 -28 -27 -27 -27 -26 -26 -26 -26 -26 -26 -26 -26 -25 -25 -26 -26 -25 -25 -26 -26 -26 -26 -26 -26 -26 -26 -26 -27 -27 -28 -28 -29 -29 -30 -30 -30 -31 -31 -31 -31 -31 -32 -32 -33
-29 -29 -29 -29 -29 -29 -29 -29 -29 -28 -29 -28 -28 -28 -28 -27 -27 -27 -27 -27 -27 -27 -27 -27 -27 -27 -27 -27 -27 -27 -27 -27 -27 -27 -27 -28 -28 -29 -29 -30 -30 -30 -31 -31 -31 -31 -32 -32 -32 -32 -32 -33 -33 -33
-29 -30 -30 -30 -29 -29 -29 -29 -29 -29 -29 -29 -29 -28 -28 -28 -28 -28 -28 -28 -28 -28 -28 -28 -28 -28 -28 -28 -28 -28 -28 -29 -29 -29 -29 -30 -30 -30 -31 -31 -31 -31 -31 -32 -32 -32 -32 -33 -33 -33 -33 -34 -34 -34
-30 -30 -29 -29 -29 -29 -29 -29 -29 -29 -29 -29 -29 -29 -29 -29 -29 -29 -29 -29 -29 -29 -29 -29 -29 -29 -29 -29 -30 -30 -30 -30 -30 -31 -31 -31 -31 -31 -31 -32 -32 -32 -32 -32 -32 -33 -33 -33 -34 -34 -34 -34 -34 -34
-30 -30 -29 -29 -29 -29 -29 -29 -29 -29 -29 -29 -29 -29 -29 -29 -29 -29 -29 -29 -29 -29 -29 -30 -30 -30 -31 -31 -31 -31 -31 -31 -31 -31 -31 -32 -32 -32 -33 -33 -33 -33 -33 -33 -33 -33 -33 -34 -34 -34 -34 -34 -34 -34
-30 -30 -29 -29 -29 -30 -30 -30 -30 -30 -30 -30 -30 -30 -29 -29 -29 -29 -30 -30 -31 -31 -31 -31 -31 -31 -31 -31 -32 -32 -32 -32 -32 -32 -32 -33 -33 -32 -33 -33 -33 -33 -33 -33 -33 -33 -34 -34 -34 -34 -34 -34 -34 -34
-30 -30 -30 -30 -30 -30 -30 -30 -30 -30 -30 -30 -30 -30 -30 -30 -30 -30 -31 -31 -31 -31 -31 -31 -32 -32 -32 -32 -32 -32 -32 -32 -32 -32 -32 -32 -32 -32 -32 -32 -33 -33 -33 -33 -33 -33 -34 -34 -34 -34 -34 -34 -34 -34
-31 -31 -31 -31 -31 -30 -30 -30 -30 -30 -30 -30 -30 -31 -31 -31 -31 -31 -31 -31 -31 -31 -32 -32 -32 -32 -32 -32 -32 -32 -32 -32 -32 -31 -31 -32 -32 -32 -32 -32 -33 -34 -34 -34 -34 -34 -34 -34 -34 -34 -34 -34 -34 -34
-31 -31 -31 -31 -31 -31 -30 -31 -31 -31 -31 -31 -31 -31 -31 -31 -31 -31 -31 -31 -32 -32 -32 -32 -32 -32 -32 -32 -32 -32 -32 -32 -32 -32 -32 -32 -31 -31 -31 -33 -35 -35 -35 -34 -34 -34 -34 -35 -34 -34 -34 -34 -34 -34
-31 -31 -31 -31 -31 -31 -31 -31 -31 -31 -31 -31 -31 -32 -32 -32 -32 -32 -32 -32 -33 -33 -33 -33 -32 -32 -32 -32 -32 -32 -31 -31 -31 -32 -31 -31 -31 -31 -31 -33 -35 -35 -35 -35 -34 -35 -35 -35 -35 -35 -34 -34 -34 -34
-31 -31 -31 -31 -31 -31 -31 -31 -31 -32 -32 -32 -32 -33 -33 -33 -33 -33 -33 -33 -33 -33 -33 -33 -33 -33 -32 -32 -32 -32 -32 -32 -32 -32 -32 -32 -32 -32 -33 -34 -34 -35 -35 -35 -35 -35 -35 -35 -35 -35 -35 -35 -35 -35
-32 -32 -32 -32 -32 -32 -32 -32 -33 -33 -33 -33 -33 -33 -33 -33 -33 -33 -33 -33 -33 -33 -33 -32 -32 -32 -32 -32 -32 -32 -32 -32 -32 -32 -32 -32 -33 -33 -33 -34 -34 -35 -35 -35 -35 -36 -36 -36 -36 -36 -36 -35 -35 -35
-32 -32 -32 -33 -33 -33 -33 -33 -33 -33 -33 -33 -33 -33 -33 -33 -33 -33 -33 -33 -33 -33 -32 -32 -32 -32 -32 -32 -31 -31 -32 -32 -32 -32 -33 -33 -33 -34 -34 -35 -35 -35 -36 -36 -36 -36 -36 -37 -37 -37 -37 -36 -36 -36
-33 -33 -33 -33 -33 -33 -33 -33 -33 -33 -33 -33 -33 -33 -33 -33 -33 -33 -33 -33 -33 -33 -33 -32 -32 -32 -32 -32 -32 -32 -32 -32 -33 -33 -33 -33 -34 -34 -34 -35 -35 -36 -36 -37 -37 -38 -37 -38 -37 -37 -37 -37 -37 -37
Height
5599 5606 5615 5623 5631 5638 5646 5654 5662 5668 5675 5680 5686 5691 5695 5700 5705 5710 5715 5719 5724 5728 5732 5736 5739 5742 5744 5747 5750 5753 5755 5756 5757 5757 5757 5756 5755 5754 5753 5750 5747 5744 5740 5737 5732 5728 5719 5715 5710 5708 5704 5698 5690 5686
5596 5604 5611 5620 5628 5634 5642 5650 5658 5664 5670 5676 5681 5686 5691 5695 5700 5705 5710 5714 5718 5722 5727 5729 5732 5735 5738 5741 5744 5745 5748 5749 5749 5749 5749 5748 5748 5746 5745 5742 5739 5738 5733 5729 5723 5720 5711 5704 5699 5695 5691 5685 5680 5674
5593 5600 5608 5615 5623 5630 5638 5645 5653 5659 5665 5671 5677 5681 5686 5690 5695 5699 5704 5708 5711 5716 5720 5723 5726 5729 5731 5734 5736 5738 5739 5740 5740 5740 5740 5739 5738 5737 5735 5734 5730 5728 5723 5719 5713 5713 5703 5699 5693 5687 5682 5676 5671 5664
5589 5596 5604 5611 5619 5627 5634 5641 5647 5653 5660 5665 5671 5676 5680 5684 5689 5693 5697 5700 5704 5709 5712 5716 5718 5722 5724 5726 5727 5729 5730 5730 5731 5730 5730 5729 5728 5726 5726 5722 5720 5719 5713 5705 5702 5699 5692 5688 5682 5676 5669 5664 5658 5650
5585 5592 5600 5608 5615 5622 5629 5635 5642 5648 5654 5660 5664 5669 5674 5678 5682 5687 5690 5693 5697 5701 5705 5708 5710 5713 5715 5717 5718 5719 5720 5720 5721 5720 5720 5719 5716 5715 5713 5710 5712 5709 5703 5696 5691 5686 5682 5677 5670 5664 5656 5650 5644 5636
5578 5586 5594 5603 5610 5616 5623 5629 5635 5642 5647 5653 5658 5662 5667 5672 5676 5679 5683 5687 5689 5692 5696 5699 5702 5705 5706 5708 5709 5710 5710 5711 5710 5710 5709 5707 5706 5704 5699 5699 5703 5697 5692 5684 5680 5675 5669 5663 5657 5650 5644 5638 5630 5620
5572 5580 5588 5596 5604 5611 5617 5623 5629 5636 5641 5646 5650 5655 5660 5664 5669 5673 5677 5682 5682 5685 5687 5690 5692 5696 5697 5698 5700 5700 5700 5701 5700 5698 5698 5698 5696 5690 5687 5689 5690 5683 5677 5672 5667 5663 5657 5651 5645 5639 5631 5622 5615 5606
5566 5573 5581 5589 5596 5604 5611 5617 5623 5629 5634 5638 5643 5647 5652 5656 5660 5664 5666 5671 5673 5676 5678 5679 5683 5688 5690 5689 5689 5689 5689 5688 5689 5687 5687 5686 5683 5679 5676 5680 5674 5668 5665 5660 5655 5649 5642 5636 5630 5624 5616 5608 5600 5591
5559 5566 5573 5581 5589 5597 5604 5611 5617 5622 5627 5631 5635 5639 5643 5647 5651 5655 5657 5660 5663 5667 5667 5671 5675 5678 5678 5679 5679 5678 5677 5677 5676 5676 5675 5673 5670 5668 5668 5662 5658 5655 5650 5646 5641 5635 5629 5623 5616 5609 5601 5593 5586 5578
5551 5560 5567 5574 5581 5588 5596 5603 5609 5615 5620 5624 5627 5630 5634 5640 5643 5644 5645 5648 5651 5654 5657 5662 5665 5666 5668 5667 5668 5668 5666 5665 5663 5664 5661 5660 5659 5659 5653 5648 5645 5641 5637 5632 5626 5621 5615 5609 5602 5595 5587 5579 5571 5563
5544 5551 5559 5566 5573 5579 5586 5595 5601 5608 5611 5614 5617 5621 5626 5629 5631 5631 5632 5636 5641 5645 5649 5653 5654 5654 5655 5655 5654 5653 5651 5650 5650 5651 5647 5646 5647 5646 5639 5635 5632 5628 5623 5617 5611 5606 5600 5594 5587 5581 5573 5564 5556 5546
5536 5543 5550 5557 5564 5571 5577 5584 5591 5598 5603 5607 5611 5615 5617 5617 5618 5620 5620 5625 5630 5634 5638 5640 5643 5643 5643 5643 5641 5640 5637 5636 5636 5636 5634 5633 5635 5630 5625 5621 5617 5613 5607 5602 5597 5591 5585 5579 5572 5565 5556 5548 5539 5530
5527 5533 5541 5547 5554 5561 5569 5574 5580 5587 5593 5599 5601 5603 5606 5606 5605 5605 5608 5615 5620 5623 5627 5630 5631 5631 5631 5630 5628 5627 5625 5623 5623 5622 5620 5620 5619 5612 5609 5604 5600 5597 5592 5587 5581 5575 5570 5563 5555 5547 5540 5531 5524 5514
5523 5526 5530 5536 5543 5551 5559 5565 5571 5576 5583 5586 5590 5591 5592 5590 5591 5594 5599 5604 5609 5612 5615 5617 5617 5617 5617 5618 5616 5614 5611 5609 5607 5608 5608 5604 5601 5597 5594 5589 5585 5581 5576 5570 5566 5561 5553 5547 5540 5531 5523 5515 5508 5500
5520 5523 5527 5530 5534 5539 5547 5554 5560 5564 5570 5574 5577 5577 5578 5581 5584 5587 5590 5593 5596 5598 5602 5603 5603 5603 5603 5602 5601 5599 5597 5594 5594 5594 5591 5588 5585 5581 5578 5573 5568 5564 5560 5556 5551 5545 5537 5530 5524 5517 5508 5500 5492 5485
5515 5518 5522 5526 5529 5532 5535 5540 5546 5551 5556 5561 5564 5566 5568 5572 5574 5577 5578 5581 5584 5585 5587 5587 5588 5589 5588 5588 5587 5585 5583 5581 5581 5578 5575 5572 5569 5565 5561 5556 5552 5549 5545 5540 5533 5527 5521 5514 5508 5503 5495 5486 5479 5471
5509 5512 5515 5519 5523 5526 5529 5532 5534 5539 5545 5550 5553 5556 5559 5560 5562 5564 5566 5569 5571 5573 5574 5573 5574 5573 5573 5572 5572 5570 5568 5568 5566 5563 5561 5558 5553 5548 5544 5542 5538 5532 5527 5522 5517 5511 5505 5498 5492 5487 5481 5473 5466 5459
5501 5503 5507 5511 5515 5518 5520 5523 5527 5529 5534 5537 5540 5544 5546 5547 5550 5552 5555 5557 5558 5558 5559 5561 5561 5560 5559 5557 5556 5556 5556 5554 5551 5549 5545 5541 5537 5534 5530 5526 5520 5515 5511 5506 5500 5495 5489 5484 5477 5471 5465 5459 5453 5447
5491 5494 5498 5503 5507 5510 5513 5516 5519 5522 5524 5527 5530 5532 5535 5537 5539 5541 5543 5544 5545 5546 5547 5547 5545 5544 5540 5542 5544 5543 5541 5538 5535 5533 5530 5526 5523 5518 5514 5510 5506 5501 5496 5491 5486 5480 5475 5469 5462 5456 5450 5444 5438 5433
5482 5486 5491 5495 5498 5501 5505 5509 5512 5515 5518 5520 5522 5525 5526 5527 5528 5529 5530 5531 5532 5533 5534 5534 5530 5527 5531 5531 5529 5527 5525 5523 5522 5520 5516 5511 5508 5504 5499 5494 5491 5486 5482 5477 5472 5466 5460 5454 5448 5442 5436 5430 5425 5420
5475 5479 5484 5489 5493 5497 5500 5504 5507 5509 5511 5514 5516 5518 5519 5520 5522 5523 5523 5523 5524 5525 5521 5519 5518 5518 5518 5516 5514 5513 5511 5509 5507 5504 5500 5496 5492 5488 5485 5480 5476 5472 5468 5463 5457 5452 5445 5439 5434 5428 5423 5418 5413 5409
5468 5475 5481 5485 5489 5492 5496 5498 5502 5504 5507 5508 5510 5511 5513 5514 5515 5516 5515 5516 5515 5512 5512 5511 5509 5507 5505 5502 5501 5499 5497 5495 5492 5489 5486 5482 5480 5476 5471 5466 5462 5457 5452 5447 5440 5437 5431 5424 5419 5415 5411 5408 5404 5399
5466 5473 5477 5481 5485 5488 5492 5494 5497 5499 5501 5503 5504 5506 5507 5508 5508 5507 5507 5506 5502 5501 5501 5499 5497 5494 5492 5489 5487 5485 5484 5481 5479 5476 5473 5469 5466 5461 5457 5452 5446 5441 5437 5433 5425 5420 5416 5411 5407 5404 5401 5397 5394 5390
5464 5470 5473 5477 5480 5484 5487 5489 5491 5494 5496 5497 5498 5499 5500 5500 5499 5498 5497 5493 5491 5490 5488 5486 5484 5482 5480 5477 5475 5473 5471 5469 5467 5464 5460 5455 5451 5447 5441 5437 5432 5427 5421 5415 5411 5407 5402 5399 5396 5393 5390 5387 5384 5381
5462 5466 5470 5473 5477 5480 5482 5484 5487 5488 5490 5491 5492 5492 5492 5490 5489 5488 5485 5483 5481 5480 5478 5476 5473 5471 5469 5466 5464 5461 5458 5456 5452 5449 5446 5440 5435 5431 5426 5420 5415 5411 5406 5402 5398 5394 5391 5387 5385 5382 5379 5376 5373 5369
5460 5464 5469 5470 5472 5476 5478 5480 5482 5483 5483 5484 5483 5482 5481 5479 5478 5477 5476 5473 5471 5469 5467 5464 5462 5460 5457 5454 5451 5448 5445 5441 5438 5434 5430 5423 5418 5412 5407 5402 5399 5397 5391 5387 5384 5381 5378 5376 5373 5371 5368 5365 5362 5358
5458 5462 5465 5468 5470 5472 5473 5474 5475 5474 5474 5474 5473 5471 5470 5469 5468 5466 5463 5461 5460 5457 5455 5453 5450 5448 5445 5442 5438 5435 5431 5426 5422 5417 5412 5407 5400 5393 5385 5380 5378 5377 5375 5373 5371 5368 5366 5364 5362 5360 5357 5354 5351 5347
5458 5460 5462 5464 5465 5465 5466 5466 5466 5466 5465 5465 5463 5461 5459 5458 5457 5454 5452 5450 5448 5445 5443 5440 5437 5433 5430 5427 5423 5419 5415 5411 5407 5401 5396 5390 5383 5377 5368 5358 5357 5359 5359 5358 5357 5355 5354 5352 5350 5348 5345 5342 5339 5335
5456 5457 5458 5458 5459 5459 5458 5459 5459 5459 5457 5455 5452 5450 5448 5446 5444 5442 5440 5437 5435 5432 5429 5425 5421 5418 5414 5411 5407 5403 5399 5394 5390 5386 5381 5376 5369 5363 5354 5348 5346 5346 5346 5346 5344 5343 5342 5340 5338 5336 5333 5330 5326 5323
5451 5451 5451 5451 5451 5451 5450 5450 5448 5446 5444 5442 5440 5438 5436 5434 5432 5430 5427 5425 5421 5418 5414 5410 5407 5404 5401 5397 5393 5388 5385 5380 5375 5371 5366 5361 5356 5350 5345 5341 5338 5336 5335 5334 5332 5331 5330 5328 5325 5323 5320 5317 5313 5310
5443 5443 5442 5441 5440 5439 5438 5437 5436 5434 5433 5430 5428 5425 5423 5421 5420 5417 5414 5411 5408 5404 5401 5397 5394 5390 5387 5383 5379 5374 5369 5365 5360 5355 5351 5347 5342 5337 5333 5329 5327 5325 5323 5322 5320 5319 5317 5315 5312 5309 5306 5303 5299 5295
5435 5434 5433 5432 5431 5430 5428 5426 5425 5423 5421 5418 5415 5413 5410 5408 5406 5404 5400 5397 5394 5390 5387 5383 5380 5375 5371 5367 5362 5358 5353 5349 5344 5339 5334 5330 5326 5322 5319 5316 5313 5311 5310 5308 5307 5305 5303 5301 5299 5296 5293 5289 5286 5281
5427 5426 5424 5423 5422 5420 5418 5415 5413 5411 5408 5404 5402 5400 5397 5394 5392 5390 5386 5383 5380 5376 5372 5368 5364 5360 5355 5350 5345 5340 5335 5330 5325 5320 5315 5311 5308 5305 5302 5300 5298 5296 5295 5293 5292 5291 5289 5287 5284 5282 5279 5275 5272 5268
Wind_Speed
36 36 43 36 39 43 43 42 41 37 34 33 34 33 32 32 33 34 33 34 35 33 33 34 34 33 32 31 31 30 31 30 30 31 31 31 32 33 35 36 37 38 39 41 46 47 48 43 41 40 39 41 47 49
37 32 35 43 37 38 42 41 40 38 37 34 34 34 34 35 35 35 35 34 34 35 34 34 34 33 33 33 32 34 33 33 34 34 35 36 36 37 38 38 38 37 39 42 49 46 42 45 44 46 46 48 51 56
41 31 30 38 41 38 38 39 41 38 37 37 35 35 34 36 36 37 37 37 36 36 37 37 36 35 35 35 36 36 36 37 38 39 40 40 41 39 40 41 41 37 41 46 50 42 43 41 45 47 48 52 55 58
40 36 36 34 40 43 38 38 39 39 39 36 37 36 35 35 37 38 38 37 38 39 40 39 39 39 39 39 39 40 40 41 41 42 42 43 42 43 42 43 44 37 43 50 53 48 48 44 47 51 54 57 58 60
47 42 42 37 35 35 37 40 43 40 39 39 37 38 38 36 36 37 38 38 39 40 41 40 40 40 41 41 41 41 41 42 42 42 43 43 45 44 46 48 44 40 44 53 56 51 48 50 53 54 56 59 61 63
53 48 45 42 37 35 33 35 42 41 39 41 40 40 39 40 38 37 39 39 39 40 40 42 41 41 41 41 42 43 43 42 43 43 44 45 45 45 51 49 43 43 50 55 53 51 51 53 55 57 58 60 63 66
48 50 50 46 44 39 39 37 39 40 39 41 39 41 40 41 42 42 41 38 38 39 40 41 41 41 39 40 40 42 42 42 43 45 47 45 45 49 52 48 46 51 52 52 51 52 54 56 56 59 62 64 66 67
46 50 53 51 47 45 43 40 40 43 41 40 40 40 42 42 43 45 44 43 43 43 43 46 46 42 39 40 43 44 44 45 46 46 47 46 48 49 53 49 52 51 51 51 52 53 55 58 60 63 65 65 67 69
56 49 52 54 53 52 47 46 42 42 41 40 40 39 41 43 44 45 45 46 45 46 47 49 46 44 44 43 44 45 46 47 49 49 48 48 51 51 48 49 50 49 50 52 54 58 59 61 63 64 64 65 67 68
54 59 51 53 56 57 53 49 46 43 44 46 47 47 46 43 44 47 48 48 47 47 48 47 45 46 46 47 46 46 47 48 50 50 51 54 54 53 49 50 50 50 53 56 59 61 62 62 63 63 64 65 66 68
46 52 56 47 51 56 56 51 47 45 44 41 41 45 41 41 46 51 51 50 46 44 44 42 44 47 46 46 47 49 50 52 52 54 56 57 54 47 49 51 52 55 58 60 62 61 62 62 61 63 64 66 68 70
51 50 47 49 48 46 52 58 54 52 49 46 44 44 44 46 47 48 50 49 46 44 41 39 39 44 48 50 54 54 49 52 53 53 53 54 49 50 53 54 57 59 61 62 63 63 61 61 63 64 65 67 69 70
35 47 52 50 48 46 43 43 53 57 54 46 42 45 50 53 54 59 58 54 50 47 46 41 45 49 49 48 49 47 51 52 53 54 55 55 54 58 59 60 62 63 64 64 63 61 60 61 63 65 66 67 68 67
20 24 33 45 51 51 48 46 45 46 47 50 47 52 59 57 60 62 57 52 52 49 50 51 53 54 52 52 53 54 55 56 57 57 56 60 62 62 63 63 65 63 61 61 60 60 61 62 64 66 67 67 65 63
23 23 23 27 34 46 54 54 50 47 49 51 52 55 57 61 62 61 60 58 57 57 56 56 56 55 54 55 55 57 60 63 63 62 61 62 63 63 64 62 59 60 61 60 59 61 62 63 64 64 64 62 62 62
24 25 27 27 25 27 36 49 54 54 51 53 56 54 54 54 53 55 60 56 56 59 55 53 56 60 63 60 58 60 62 63 61 60 61 61 60 57 54 54 56 58 58 59 60 62 62 63 63 61 60 59 60 60
26 28 28 29 30 30 30 33 44 53 56 54 52 55 53 50 50 50 51 52 55 55 54 53 53 52 53 54 54 53 53 54 56 56 54 50 49 51 54 57 57 57 58 60 61 61 61 61 60 57 56 57 57 56
31 32 32 32 32 32 34 35 36 43 49 52 52 51 50 49 48 48 47 46 46 47 47 46 47 49 50 50 49 50 49 48 47 46 48 50 53 56 55 55 56 57 58 59 59 58 57 56 55 56 56 55 54 52
36 36 36 34 33 34 35 36 37 38 39 45 48 50 52 51 49 46 44 44 44 43 44 46 48 47 47 49 49 50 48 47 47 49 51 53 54 55 56 57 57 57 57 57 56 54 54 55 55 55 55 54 52 50
37 37 35 32 31 32 32 31 28 32 36 34 36 40 43 46 45 43 42 40 38 37 37 38 40 44 46 44 43 43 44 46 48 49 52 53 55 56 56 56 55 55 55 54 53 53 53 53 53 53 52 50 48 46
35 35 32 30 28 28 27 29 31 27 26 26 27 28 29 30 31 32 33 34 35 35 36 37 39 39 38 39 41 42 45 47 48 50 52 53 54 54 53 52 53 52 51 51 51 51 52 52 50 49 45 42 41 40
35 36 29 29 28 25 24 24 28 32 33 30 31 32 32 32 31 30 30 32 32 33 35 37 40 42 43 44 45 45 46 47 48 49 50 50 50 49 49 50 51 51 52 52 54 52 50 47 44 42 39 36 34 35
36 33 28 34 29 24 23 24 22 23 20 17 17 18 20 22 24 26 28 31 37 40 42 45 46 47 48 47 44 43 44 45 45 46 46 47 48 49 50 51 53 55 54 54 54 49 42 38 38 37 35 34 32 32
36 33 32 31 30 27 22 23 25 26 28 28 25 26 25 26 29 33 37 42 44 44 42 40 39 38 38 40 41 42 42 43 44 45 46 48 50 52 54 56 58 57 57 54 49 45 38 34 34 35 34 34 33 34
26 32 37 31 30 32 31 30 28 27 22 21 23 25 29 33 36 38 33 32 31 32 34 35 37 38 39 40 40 40 42 44 47 49 50 53 56 59 60 61 60 58 54 50 47 44 36 33 34 34 34 34 34 35
37 34 33 28 23 20 16 13 14 17 21 25 28 31 34 34 33 31 32 36 37 37 37 36 35 35 37 39 41 44 47 49 51 53 55 58 59 61 61 60 57 52 50 48 45 42 36 33 32 31 31 33 36 39
14 11 10 9 10 11 15 19 22 24 24 25 26 29 31 34 34 34 35 37 37 37 37 38 40 41 42 44 46 48 50 51 52 52 53 55 57 59 62 65 59 51 47 46 43 40 35 32 32 33 34 37 39 40
14 13 13 13 14 17 19 21 22 24 26 29 31 33 35 34 33 34 36 38 39 39 40 40 41 43 45 47 46 45 46 47 49 50 50 52 55 57 60 52 45 41 40 39 39 37 34 33 34 35 37 38 40 42
17 17 18 18 19 21 23 26 28 31 33 34 34 35 35 35 35 35 35 36 37 39 42 45 48 48 45 45 46 46 47 48 48 48 49 50 50 49 41 32 30 32 33 34 35 35 35 36 37 38 39 41 43 44
20 20 21 22 25 26 29 31 32 33 33 32 33 34 35 36 37 39 40 42 42 43 45 45 45 46 46 45 46 47 47 48 48 49 49 49 47 44 37 32 31 31 32 33 33 35 37 40 41 42 43 44 45 46
21 23 25 27 28 29 31 32 34 35 36 37 38 39 41 42 40 39 41 42 43 44 45 45 45 45 45 46 46 47 48 49 50 50 49 47 46 44 40 36 36 36 36 36 36 36 37 40 42 44 45 47 48 49
26 28 29 31 31 33 34 35 35 37 39 41 42 43 43 43 41 40 40 42 43 45 45 44 44 45 46 48 49 50 51 51 51 51 51 50 47 44 42 40 39 39 38 37 38 39 38 40 43 46 48 50 51 53
25 26 28 32 34 36 37 38 36 35 34 34 35 37 38 38 38 40 42 42 42 43 44 45 46 48 50 51 52 53 54 55 54 53 52 51 50 48 46 44 43 42 42 40 39 41 43 45 47 49 52 52 53 52
Wind_Direction
193 199 194 196 199 201 201 202 206 209 211 212 210 210 211 210 212 213 212 212 213 214 217 220 221 223 225 228 231 235 241 247 252 257 263 269 275 280 284 288 291 293 297 304 311 321 317 314 311 310 312 312 312 312
198 198 203 195 199 201 204 204 206 210 212 213 213 213 212 212 213 214 214 214 216 218 219 221 223 226 228 232 236 241 246 251 257 263 268 272 277 280 284 286 288 290 296 303 313 320 310 309 311 312 314 313 313 313
200 204 203 203 203 202 203 205 208 211 213 214 216 216 216 217 216 217 219 219 220 221 224 225 227 230 233 236 240 245 250 256 260 265 270 273 276 280 282 285 287 295 296 302 307 313 305 305 305 307 309 310 312 313
198 206 206 209 206 206 209 210 211 214 217 218 218 218 219 221 222 222 222 223 225 227 228 228 230 234 237 240 244 249 254 258 263 267 271 274 277 278 283 284 290 297 299 302 308 309 304 305 304 307 309 312 313 313
194 202 206 207 211 215 220 219 216 217 218 221 221 222 222 223 224 227 228 228 229 231 233 233 235 237 240 244 248 252 256 260 264 268 271 274 276 282 283 285 292 295 299 302 304 302 302 303 305 306 308 310 311 310
200 199 209 208 210 214 216 215 219 218 220 223 224 225 227 228 228 229 231 232 233 236 238 239 240 243 245 249 253 256 258 261 264 268 271 275 280 282 283 287 296 297 299 298 299 299 301 302 303 305 308 308 308 309
208 207 210 216 216 221 224 226 223 222 226 227 228 229 228 229 231 234 237 238 240 241 243 245 246 248 251 255 258 261 264 266 267 270 273 278 280 281 285 292 299 298 295 297 297 297 300 302 304 305 307 308 307 308
214 212 216 220 221 222 223 228 229 227 234 229 229 231 231 233 235 236 239 240 243 246 247 249 251 253 256 260 261 263 265 268 270 274 276 278 280 284 288 298 293 292 294 294 297 301 302 304 304 305 306 306 306 307
215 214 216 219 221 221 225 224 229 228 225 229 228 233 236 235 237 240 242 243 244 247 249 251 256 258 258 261 264 266 268 270 272 274 277 278 281 287 296 293 289 292 294 297 301 302 302 303 304 304 303 303 305 307
216 215 214 217 222 220 224 226 227 227 230 232 237 242 243 241 244 242 243 244 245 247 251 254 257 261 263 264 264 267 269 270 271 273 275 276 280 290 290 288 290 294 296 298 299 301 302 301 300 300 302 303 305 308
222 225 224 220 222 221 222 223 222 225 220 226 235 241 243 242 242 242 242 244 247 250 252 257 261 263 262 265 270 270 270 270 271 274 276 281 285 287 287 289 293 294 296 298 301 301 299 298 298 300 303 306 308 310
227 226 230 233 232 227 222 220 221 220 222 229 237 240 242 246 245 244 245 246 252 257 254 257 259 262 264 267 270 273 268 267 272 278 279 281 283 288 289 291 294 297 299 300 299 296 296 298 301 304 306 308 310 312
221 224 231 230 232 236 231 229 228 225 227 229 235 234 237 242 245 243 250 250 254 259 256 258 264 270 266 271 268 263 265 269 275 281 283 281 286 290 293 293 296 298 298 297 295 295 298 301 304 305 307 309 311 313
217 224 227 226 226 230 232 231 230 231 231 229 228 229 232 238 242 240 245 253 253 253 255 261 266 268 268 266 267 268 270 274 278 283 285 280 280 286 289 291 294 295 294 292 294 298 300 303 305 306 307 309 311 313
224 224 226 228 229 226 226 232 231 229 230 231 232 235 235 235 236 242 247 252 252 255 257 262 263 265 269 268 268 271 273 273 277 280 279 277 278 284 289 291 291 290 290 293 298 300 302 303 304 306 307 309 311 313
231 232 231 231 232 231 229 227 228 228 231 230 229 236 240 241 241 244 242 243 247 253 259 260 264 268 266 265 268 271 272 271 272 273 275 280 285 287 287 286 288 292 297 299 299 300 301 302 304 306 307 308 310 312
238 237 235 233 232 233 234 231 229 228 229 232 235 237 241 243 242 246 248 251 254 256 258 256 254 252 256 256 257 261 266 269 274 278 282 283 283 284 287 291 295 297 298 298 299 300 301 302 303 305 306 307 309 310
241 239 238 236 235 235 236 234 228 231 231 230 231 234 237 241 243 246 247 247 246 243 242 251 255 259 262 264 265 268 270 272 276 281 282 284 287 290 293 294 295 296 297 298 299 300 300 302 304 304 305 306 305 305
238 236 235 235 235 235 236 236 235 235 237 237 238 240 242 247 249 252 252 252 254 257 261 262 265 267 269 271 275 278 281 283 286 288 290 291 292 293 293 293 294 295 297 297 298 300 301 302 302 302 303 302 302 302
228 230 231 231 230 229 231 229 235 237 238 241 244 247 250 253 258 264 268 271 272 273 272 272 271 271 275 278 281 284 286 289 291 292 292 290 290 291 291 293 295 296 296 297 299 300 300 300 300 300 300 301 302 302
223 223 223 216 217 221 224 220 217 222 230 238 244 248 254 258 263 268 273 275 279 281 280 282 286 290 294 293 292 292 291 291 291 290 289 290 291 292 292 292 292 293 295 297 298 300 300 299 298 298 300 301 303 304
206 203 204 206 221 215 214 222 231 239 249 257 261 265 267 270 272 272 275 278 279 280 282 285 287 289 291 291 293 293 290 288 287 288 288 288 288 289 290 292 295 297 300 302 302 302 300 298 297 297 298 301 303 305
192 192 204 207 213 216 220 221 226 226 228 240 250 257 265 271 276 280 284 285 287 289 291 292 292 293 293 292 288 286 286 286 286 287 289 290 292 293 296 298 300 303 304 305 303 304 299 296 295 294 295 299 301 305
184 195 207 212 216 217 231 229 232 239 243 251 262 274 275 277 282 290 294 294 294 293 287 284 284 284 284 284 284 286 287 288 289 290 292 293 295 297 298 299 300 301 303 303 303 304 297 293 292 291 293 294 297 301
192 201 209 218 224 225 227 225 232 241 248 259 265 272 280 287 291 296 289 282 281 282 283 284 283 284 285 285 285 285 287 289 291 293 295 295 295 296 297 297 298 299 298 297 300 300 292 292 292 291 292 294 297 299
193 200 206 208 206 213 224 243 262 272 279 282 288 290 290 289 286 281 280 282 283 283 283 282 282 282 282 282 283 285 287 289 292 293 293 293 294 294 294 293 292 291 291 292 296 294 290 291 291 292 294 298 301 303
186 196 204 224 243 259 271 278 276 276 277 277 276 274 275 275 276 278 279 280 279 278 278 279 281 282 282 282 284 288 290 290 292 294 295 295 297 297 297 294 289 285 284 285 290 288 285 287 290 291 292 297 302 304
219 228 243 253 259 265 267 267 270 271 274 277 279 279 278 277 279 280 281 281 280 281 283 283 283 284 285 289 291 291 293 295 296 297 298 299 300 302 302 294 283 279 281 282 285 283 280 284 289 291 294 297 301 303
240 250 257 254 255 261 266 269 269 270 274 281 282 282 281 281 281 282 282 283 285 287 288 288 290 292 293 294 295 296 298 298 299 298 298 300 303 309 308 294 281 281 280 281 281 279 279 283 288 291 294 296 299 300
245 252 260 266 270 271 274 276 278 281 283 283 284 285 285 286 286 286 287 288 289 290 289 290 291 292 293 293 295 296 296 297 297 297 298 301 303 306 301 288 282 279 277 279 279 278 280 283 286 288 290 292 294 296
265 268 271 274 276 279 281 283 284 284 284 284 285 284 286 285 284 285 285 285 286 286 288 290 291 291 292 292 293 294 295 296 296 297 298 298 298 298 299 289 281 281 280 278 278 278 277 279 283 286 288 291 294 297
277 278 279 280 280 281 281 281 283 284 284 282 281 282 284 287 285 285 286 286 287 288 289 290 291 291 293 294 295 296 296 297 297 297 297 296 295 293 290 288 283 278 276 273 273 275 277 278 280 283 287 291 294 297
275 276 278 280 281 280 281 282 284 286 286 283 282 283 285 284 282 284 286 288 290 292 293 294 295 296 297 298 298 298 298 298 298 297 296 294 291 288 285 281 278 276 272 269 273 275 277 279 282 285 290 293 296 299